Météo par heure à Junqueirópolis

Ce jour, 20 Juin, Dimanche

Heure Température Précipitation Vent Pression Humidité
00:00 +18°C° 0 mm 3 m/s 728 mmHg 81%
01:00 +18°C° 0 mm 3 m/s 728 mmHg 82%
02:00 +17°C° 0 mm 3 m/s 728 mmHg 83%
03:00 +17°C° 0 mm 3 m/s 728 mmHg 84%
04:00 +17°C° 0 mm 3 m/s 728 mmHg 84%
05:00 +16°C° 0 mm 2 m/s 728 mmHg 84%
06:00 +16°C° 0 mm 2 m/s 728 mmHg 84%
07:00 +16°C° 0 mm 2 m/s 729 mmHg 81%
08:00 +17°C° 0 mm 3 m/s 729 mmHg 78%
09:00 +17°C° 0 mm 3 m/s 729 mmHg 75%
10:00 +18°C° 0 mm 3 m/s 730 mmHg 70%
11:00 +19°C° 0 mm 3 m/s 730 mmHg 64%
12:00 +21°C° 0 mm 3 m/s 730 mmHg 59%
13:00 +21°C° 0 mm 3 m/s 729 mmHg 57%
14:00 +22°C° 0 mm 3 m/s 728 mmHg 56%
15:00 +22°C° 0 mm 3 m/s 728 mmHg 55%
16:00 +21°C° 0 mm 2 m/s 728 mmHg 58%
17:00 +20°C° 0 mm 2 m/s 728 mmHg 61%
18:00 +20°C° 0 mm 1 m/s 728 mmHg 65%
19:00 +20°C° 0 mm 1 m/s 728 mmHg 68%
20:00 +19°C° 0 mm 1 m/s 728 mmHg 70%
21:00 +19°C° 0 mm 1 m/s 728 mmHg 73%
22:00 +19°C° 0 mm 1 m/s 728 mmHg 72%
23:00 +18°C° 0 mm 2 m/s 728 mmHg 71%

Demain, 21 Juin, Lundi

Heure Température Précipitation Vent Pression Humidité
00:00 +18°C° 0 mm 2 m/s 728 mmHg 70%
01:00 +18°C° 0 mm 2 m/s 728 mmHg 69%
02:00 +18°C° 0 mm 2 m/s 728 mmHg 69%
03:00 +18°C° 0 mm 2 m/s 727 mmHg 68%
04:00 +18°C° 0 mm 2 m/s 727 mmHg 69%
05:00 +18°C° 0 mm 2 m/s 727 mmHg 69%
06:00 +18°C° 0 mm 2 m/s 727 mmHg 69%
07:00 +19°C° 0 mm 2 m/s 728 mmHg 66%
08:00 +20°C° 0 mm 3 m/s 728 mmHg 62%
09:00 +21°C° 0 mm 3 m/s 729 mmHg 58%
10:00 +24°C° 0 mm 3 m/s 729 mmHg 53%
11:00 +26°C° 0 mm 3 m/s 729 mmHg 47%
12:00 +28°C° 0 mm 3 m/s 729 mmHg 42%
13:00 +29°C° 0 mm 2 m/s 728 mmHg 40%
14:00 +30°C° 0 mm 2 m/s 727 mmHg 37%
15:00 +31°C° 0 mm 2 m/s 727 mmHg 35%
16:00 +29°C° 0 mm 2 m/s 726 mmHg 39%
17:00 +28°C° 0 mm 2 m/s 726 mmHg 42%
18:00 +26°C° 0 mm 2 m/s 726 mmHg 46%
19:00 +25°C° 0 mm 2 m/s 726 mmHg 52%
20:00 +24°C° 0 mm 3 m/s 727 mmHg 58%
21:00 +21°C° 0 mm 3 m/s 727 mmHg 64%
22:00 +20°C° 0 mm 3 m/s 727 mmHg 66%
23:00 +20°C° 0 mm 3 m/s 727 mmHg 68%

Après-demain, 22 Juin, Mardi

Heure Température Précipitation Vent Pression Humidité
00:00 +19°C° 0 mm 3 m/s 727 mmHg 70%
01:00 +19°C° 0 mm 3 m/s 727 mmHg 71%
02:00 +18°C° 0 mm 3 m/s 727 mmHg 72%
03:00 +18°C° 0 mm 3 m/s 727 mmHg 73%
04:00 +18°C° 0 mm 3 m/s 727 mmHg 73%
05:00 +17°C° 0 mm 2 m/s 727 mmHg 74%
06:00 +17°C° 0 mm 2 m/s 727 mmHg 75%
07:00 +19°C° 0 mm 3 m/s 728 mmHg 69%
08:00 +20°C° 0 mm 3 m/s 728 mmHg 64%
09:00 +21°C° 0 mm 3 m/s 729 mmHg 58%
10:00 +25°C° 0 mm 3 m/s 729 mmHg 52%
11:00 +27°C° 0 mm 3 m/s 729 mmHg 46%
12:00 +29°C° 0 mm 2 m/s 729 mmHg 40%
13:00 +29°C° 0 mm 2 m/s 728 mmHg 39%
14:00 +30°C° 0 mm 2 m/s 728 mmHg 37%
15:00 +31°C° 0 mm 2 m/s 727 mmHg 36%
16:00 +29°C° 0 mm 2 m/s 727 mmHg 40%
17:00 +28°C° 0 mm 3 m/s 727 mmHg 45%
18:00 +26°C° 0 mm 3 m/s 726 mmHg 50%
19:00 +25°C° 0 mm 3 m/s 727 mmHg 55%
20:00 +24°C° 0 mm 3 m/s 727 mmHg 60%
21:00 +22°C° 0 mm 3 m/s 727 mmHg 65%
22:00 +22°C° 0 mm 4 m/s 727 mmHg 67%
23:00 +21°C° 0 mm 4 m/s 727 mmHg 70%

23 Juin, Mercredi

Heure Température Précipitation Vent Pression Humidité
00:00 +21°C° 0 mm 4 m/s 727 mmHg 72%
01:00 +21°C° 0 mm 4 m/s 727 mmHg 73%
02:00 +21°C° 0 mm 5 m/s 727 mmHg 73%
03:00 +20°C° 0 mm 5 m/s 727 mmHg 73%
04:00 +20°C° 0 mm 5 m/s 727 mmHg 75%
05:00 +19°C° 0 mm 5 m/s 727 mmHg 76%
06:00 +18°C° 0 mm 4 m/s 727 mmHg 78%
07:00 +19°C° 0 mm 5 m/s 728 mmHg 73%
08:00 +20°C° 0 mm 6 m/s 728 mmHg 69%
09:00 +21°C° 0 mm 6 m/s 729 mmHg 64%
10:00 +23°C° 0 mm 6 m/s 729 mmHg 56%
11:00 +27°C° 0 mm 5 m/s 729 mmHg 48%
12:00 +30°C° 0 mm 5 m/s 729 mmHg 40%
13:00 +32°C° 0 mm 5 m/s 728 mmHg 38%
14:00 +33°C° 0 mm 4 m/s 727 mmHg 35%
15:00 +34°C° 0 mm 4 m/s 727 mmHg 32%
16:00 +32°C° 0 mm 4 m/s 726 mmHg 35%
17:00 +29°C° 0 mm 3 m/s 726 mmHg 39%
18:00 +28°C° 0 mm 3 m/s 726 mmHg 43%
19:00 +26°C° 0 mm 3 m/s 726 mmHg 46%
20:00 +25°C° 0 mm 3 m/s 726 mmHg 50%
21:00 +23°C° 0 mm 4 m/s 726 mmHg 54%
22:00 +22°C° 0 mm 4 m/s 726 mmHg 55%
23:00 +22°C° 0 mm 4 m/s 726 mmHg 55%

24 Juin, Jeudi

Heure Température Précipitation Vent Pression Humidité
00:00 +21°C° 0 mm 5 m/s 726 mmHg 56%
01:00 +21°C° 0 mm 5 m/s 726 mmHg 56%
02:00 +21°C° 0 mm 5 m/s 725 mmHg 57%
03:00 +20°C° 0 mm 5 m/s 725 mmHg 57%
04:00 +20°C° 0 mm 5 m/s 725 mmHg 59%
05:00 +19°C° 0 mm 5 m/s 725 mmHg 61%
06:00 +19°C° 0 mm 4 m/s 725 mmHg 63%
07:00 +20°C° 0 mm 5 m/s 725 mmHg 59%
08:00 +22°C° 0 mm 5 m/s 726 mmHg 55%
09:00 +23°C° 0 mm 5 m/s 726 mmHg 51%
10:00 +28°C° 0 mm 6 m/s 726 mmHg 42%
11:00 +32°C° 0 mm 6 m/s 726 mmHg 33%
12:00 +35°C° 0 mm 6 m/s 725 mmHg 24%
13:00 +36°C° 0 mm 6 m/s 725 mmHg 22%
14:00 +38°C° 0 mm 6 m/s 724 mmHg 20%
15:00 +39°C° 0 mm 6 m/s 723 mmHg 18%
16:00 +36°C° 0 mm 5 m/s 723 mmHg 21%
17:00 +33°C° 0 mm 3 m/s 723 mmHg 24%
18:00 +30°C° 0 mm 1 m/s 723 mmHg 27%
19:00 +29°C° 0 mm 1 m/s 723 mmHg 29%
20:00 +28°C° 0 mm 1 m/s 724 mmHg 31%
21:00 +27°C° 0 mm 1 m/s 724 mmHg 33%
22:00 +26°C° 0 mm 1 m/s 724 mmHg 34%
23:00 +25°C° 0 mm 1 m/s 724 mmHg 35%

25 Juin, Vendredi

Heure Température Précipitation Vent Pression Humidité
00:00 +25°C° 0 mm 1 m/s 724 mmHg 36%
01:00 +25°C° 0 mm 1 m/s 724 mmHg 37%
02:00 +24°C° 0 mm 1 m/s 724 mmHg 37%
03:00 +24°C° 0 mm 1 m/s 724 mmHg 38%
04:00 +24°C° 0 mm 1 m/s 724 mmHg 39%
05:00 +24°C° 0 mm 1 m/s 724 mmHg 39%
06:00 +24°C° 0 mm 1 m/s 724 mmHg 40%
07:00 +25°C° 0 mm 1 m/s 725 mmHg 38%
08:00 +26°C° 0 mm 1 m/s 725 mmHg 36%
09:00 +27°C° 0 mm 1 m/s 726 mmHg 35%
10:00 +29°C° 0 mm 2 m/s 726 mmHg 31%
11:00 +31°C° 0 mm 2 m/s 726 mmHg 27%
12:00 +35°C° 0 mm 2 m/s 726 mmHg 23%
13:00 +36°C° 0 mm 2 m/s 726 mmHg 21%
14:00 +36°C° 0 mm 2 m/s 725 mmHg 20%
15:00 +37°C° 0 mm 2 m/s 724 mmHg 19%
16:00 +35°C° 0 mm 2 m/s 724 mmHg 22%
17:00 +32°C° 0 mm 2 m/s 724 mmHg 25%
18:00 +30°C° 0 mm 2 m/s 724 mmHg 28%
19:00 +29°C° 0 mm 3 m/s 724 mmHg 30%
20:00 +28°C° 0 mm 3 m/s 725 mmHg 33%
21:00 +27°C° 0 mm 3 m/s 725 mmHg 35%
22:00 +26°C° 0 mm 3 m/s 725 mmHg 36%
23:00 +26°C° 0 mm 3 m/s 725 mmHg 37%
Voir plus

Nous avons besoin de votre consentement

Meteoprog et ses fournisseurs de services peuvent stocker et accéder à des données personnelles telles que des cookies, des identifiants d'appareils ou d'autres technologies similaires sur votre appareil et traiter ces données pour personnaliser le contenu et les publicités, ainsi que pour fournir des fonctionnalités de médias sociaux et analyser le trafic.

  • Stocker et/ou accéder à des informations sur votre appareil

    Des cookies, des identifiants d'appareils ou d'autres informations peuvent être stockés ou accessibles sur votre appareil aux fins indiquées ci-dessus.

  • Annonces et contenus personnalisés, mesure des annonces et des contenus, connaissance de l'audience et développement de produits

    Les annonces et le contenu peuvent être personnalisés en fonction d'un profil. D'autres données peuvent être ajoutées pour mieux personnaliser les annonces et le contenu. Les performances des publicités et du contenu peuvent être mesurées. Il est possible d'obtenir des informations sur le public qui a vu les publicités et le contenu. Ces données peuvent être utilisées pour développer ou améliorer l'expérience de l'utilisateur, les systèmes et les logiciels.

En cliquant sur "J'accepte", vous autorisez l'utilisation de cookies, des identifiants d'appareils, des balises web ou d'autres technologies similaires. Vos paramètres peuvent être modifiés dans le navigateur de votre appareil.

Dans certains cas, des intérêts légitimes peuvent être invoqués plutôt qu'un consentement. Vous pouvez en savoir plus à ce sujet dans notre Politique de confidentialité et de cookies.